{"data":{"norad_id":62241,"intl_designator":"2024-232E","name":"QIANFAN-40","alt_names":[],"object_type":"PAYLOAD","status":"ACTIVE","operator":null,"country":"PRC","launch_date":"2024-12-05","launch_site_code":"TAISC","launch_vehicle":null,"mission":null,"orbit_class":"UNKNOWN","rcs_meters":null,"size_class":null,"mass_kg":null,"dimensions":null,"purposes":[],"wikipedia_slug":null,"has_3d_model":false,"image_url":null,"decayed_at":null,"tle_current":{"epoch":"2026-09-22T20:37:20.287776Z","epoch_age_seconds":106190,"freshness":"FRESH","line1":"1 62241U 24232E   26265.85926259  .00000080  00000+0  10547-3 0  9992","line2":"2 62241  89.0194  12.4036 0015598 102.9021 257.3874 13.51029607137952","mean_motion":13.51029607,"eccentricity":0.0015598,"inclination_deg":89.0194,"raan_deg":12.4036,"arg_perigee_deg":102.9021,"mean_anomaly_deg":257.3874,"bstar":0.00010547,"rev_number":13795,"period_min":106.58537699981,"perigee_km":1056.8575693274,"apogee_km":1080.0880132322,"semimajor_km":7446.6097912798,"source":"CELESTRAK","updated_at":"2026-09-23T09:00:21.307513Z"}}}